Weather History for New Bedford, MA

Change the Weather History Date:

Monday, December 17, 2012

  Actual Average Record
Temperature  
Mean Temperature 44 °F -  
Max Temperature 48 °F 42 °F 60 °F (1973)
Min Temperature 39 °F 28 °F 10 °F (2013)
Degree Days  
Heating Degree Days 22    
Moisture  
Dew Point 43 °F    
Average Humidity 93    
Maximum Humidity 97    
Minimum Humidity 87    
Precipitation  
Precipitation 0.26 in - - ()
Sea Level Pressure  
Sea Level Pressure 29.91 in    
Wind  
Wind Speed 9 mph (NE)    
Max Wind Speed 15 mph    
Max Gust Speed -    
Visibility 3 miles    
Events Rain    
Averages and records for this station are not official NWS values.
T = Trace of Precipitation, MM = Missing Value Source: NWS Daily Summary

Daily Weather History Graph

Daily Weather History Graph

Search for Another Location

Airport:

Trip Planner

Search our weather history database for the weather conditions in past years. The results will help you decide how hot, cold, wet, or windy it might be!

Date:

Astronomy

Dec. 17, 2012 Rise Set
Actual Time 7:05 AM EST 4:15 PM EST
Civil Twilight 6:33 AM EST 4:46 PM EST
Nautical Twilight 5:58 AM EST 5:21 PM EST
Astronomical Twilight 5:25 AM EST 5:55 PM EST
Moon 10:08 AM EST (12/17) 9:37 PM EST (12/17)
Length of Visible Light 10h 12m
Length of Day
9h 09m
Waxing Crescent, 24% of the Moon is Illuminated
Dec 17
Waxing Crescent
Dec 20
First Quarter
Dec 28
Full
Jan 4
Last Quarter
Jan 11
New

Hourly Weather History & Observations

Time (EST) Temp. Windchill Dew Point Humidity Pressure Visibility Wind Dir Wind Speed Gust Speed Precip Events Conditions
12:01 AM 39.2 °F 32.5 °F 37.4 °F 93% 30.01 in 2.5 mi ENE 10.4 mph - 0.01 in Rain Light Rain
12:13 AM 39.2 °F 32.0 °F 37.4 °F 93% 30.01 in 3.0 mi ENE 11.5 mph - 0.01 in Rain Light Rain
12:39 AM 39.2 °F 32.5 °F 37.4 °F 93% 30.01 in 2.0 mi NE 10.4 mph - 0.02 in Rain Light Rain
12:53 AM 39.0 °F 33.4 °F 37.9 °F 96% 30.01 in 2.5 mi ENE 8.1 mph - 0.03 in Rain Light Rain
1:41 AM 39.2 °F 32.0 °F 37.4 °F 93% 29.99 in 3.0 mi ENE 11.5 mph - 0.00 in Rain Light Rain
1:53 AM 39.9 °F 33.9 °F 37.9 °F 93% 30.00 in 3.0 mi NE 9.2 mph - 0.00 in Rain Light Rain
2:53 AM 41.0 °F 34.7 °F 39.0 °F 93% 29.98 in 3.0 mi NE 10.4 mph - 0.00 in   Overcast
3:53 AM 42.1 °F 35.7 °F 39.9 °F 92% 29.96 in 4.0 mi NE 11.5 mph - 0.01 in Rain Light Rain
4:53 AM 42.1 °F 36.6 °F 39.9 °F 92% 29.95 in 3.0 mi NE 9.2 mph - 0.01 in Rain Light Rain
5:20 AM 42.8 °F 37.5 °F 39.2 °F 87% 29.95 in 2.5 mi NE 9.2 mph - 0.01 in Rain Light Rain
5:43 AM 42.8 °F 37.0 °F 41.0 °F 93% 29.94 in 3.0 mi NE 10.4 mph - 0.03 in Rain Light Rain
5:53 AM 43.0 °F 37.7 °F 41.0 °F 93% 29.95 in 4.0 mi NE 9.2 mph - 0.04 in Rain Light Rain
6:53 AM 43.0 °F 36.8 °F 41.0 °F 93% 29.95 in 5.0 mi NE 11.5 mph - 0.04 in Rain Light Rain
7:53 AM 43.0 °F 37.7 °F 42.1 °F 97% 29.94 in 3.0 mi NE 9.2 mph - 0.01 in Rain Light Rain
8:53 AM 44.1 °F 39.0 °F 43.0 °F 96% 29.93 in 2.5 mi NE 9.2 mph - 0.00 in   Overcast
9:53 AM 46.0 °F 39.6 °F 44.1 °F 93% 29.92 in 2.5 mi ENE 15.0 mph - 0.00 in Rain Light Rain
10:12 AM 46.4 °F 41.1 °F 44.6 °F 93% 29.92 in 3.0 mi NE 11.5 mph - 0.00 in   Overcast
10:44 AM 46.4 °F 42.4 °F 44.6 °F 93% 29.92 in 2.0 mi NE 8.1 mph - 0.00 in   Overcast
10:53 AM 46.0 °F 41.4 °F 44.1 °F 93% 29.92 in 2.0 mi NE 9.2 mph - 0.00 in   Overcast
11:00 AM 46.4 °F 42.9 °F 44.6 °F 93% 29.91 in 10.0 mi NE 6.9 mph - N/A   Overcast
11:53 AM 46.9 °F - 44.1 °F 90% 29.90 in 2.0 mi NNE 8.1 mph - 0.01 in Rain Light Rain
12:53 PM 46.9 °F - 45.0 °F 93% 29.88 in 1.5 mi NE 6.9 mph - 0.01 in Rain Light Rain
1:49 PM 46.4 °F 42.9 °F 44.6 °F 93% 29.88 in 2.0 mi NNE 6.9 mph - 0.01 in   Overcast
1:53 PM 46.9 °F - 45.0 °F 93% 29.88 in 2.0 mi NNE 5.8 mph - 0.01 in   Overcast
2:21 PM 46.4 °F 42.4 °F 44.6 °F 93% 29.87 in 3.0 mi NNE 8.1 mph - N/A   Overcast
2:53 PM 46.9 °F - 45.0 °F 93% 29.89 in 7.0 mi North 3.5 mph - N/A   Overcast
3:53 PM 46.9 °F - 46.0 °F 97% 29.85 in 2.0 mi NE 5.8 mph - N/A   Overcast
4:53 PM 46.9 °F - 46.0 °F 97% 29.84 in 2.0 mi NNE 3.5 mph - 0.02 in Rain Light Rain
7:53 PM 46.9 °F - 46.0 °F 97% 29.85 in 1.5 mi ENE 4.6 mph - 0.05 in Rain Light Rain
8:53 PM 46.9 °F - 46.0 °F 97% 29.81 in 3.0 mi NE 6.9 mph - 0.01 in   Overcast
9:53 PM 48.0 °F - 46.0 °F 93% 29.79 in 7.0 mi ENE 6.9 mph - N/A   Overcast
10:53 PM 48.0 °F - 46.0 °F 93% 29.79 in 6.0 mi NE 4.6 mph - N/A   Overcast
11:53 PM 48.0 °F - 46.0 °F 93% 29.73 in 2.0 mi ENE 6.9 mph - 0.01 in Rain Light Rain